TUBIN
1 48900U 21059X   25273.84281553  .00139403  00000-0  98567-3 0  9991
2 48900  97.6761  93.2583 0002480 173.5378 186.5917 15.73586361237764
LEDSAT
1 49069U 21073D   25273.75788203  .00665445  18278-3  19290-2 0  9992
2 49069  97.3707   1.7149 0004884 305.4292  54.6526 15.92948454229208
CUTE
1 49263U 21088D   25273.82649920  .00042108  00000-0  68358-3 0  9990
2 49263  97.4410 353.7336 0006604 167.5112 192.6305 15.52597483221965
TeikyoSat 4
1 49396U 21102B   25273.63074374  .00005409  00000-0  35337-3 0  9992
2 49396  97.4016 307.9535 0014174 104.2164 256.0640 15.08141085213582
Z-Sat
1 49399U 21102E   25273.63998679  .00011192  00000-0  59276-3 0  9992
2 49399  97.3703 311.7848 0019415  74.0188 286.3182 15.15410369214096
KOSEN 1
1 49402U 21102H   25273.63092416  .00018092  00000-0  79341-3 0  9992
2 49402  97.3595 316.0807 0016403  48.2677 311.9959 15.21909121214478
HO-113
1 50466U 21131B   25273.88264229  .00001786  00000-0  56982-3 0  9994
2 50466  98.5072   2.6726 0004882 145.3218 214.8290 14.40959245197762
SNUGLITE 2
1 52899U 22065F   25273.65528791  .00003492  00000-0  68219-3 0  9997
2 52899  98.1853  54.6497 0008599 115.6992 244.5099 14.63515809173026
UmKA 1 (RS40S)
1 57172U 23091G   25273.74429583  .00015210  00000-0  77680-3 0  9998
2 57172  97.5460 328.5539 0012476 306.3928  53.6153 15.16723388124623
CubeBel-2 (EU11S)
1 57175U 23091K   25273.78026541  .00023216  00000-0  10294-2 0  9994
2 57175  97.5456 330.4856 0010180 311.4860  48.5501 15.21559860124759
ENSO
1 58470U 23185J   25270.96155755  .00229092  00000-0  15463-2 0  9997
2 58470  97.3590 350.7077 0002480  10.2309 349.9006 15.74419810102270
SONATE-2
1 59112U 24043Q   25273.80176977  .00045062  00000-0  11223-2 0  9993
2 59112  97.5270  47.6480 0010667  69.9598 290.2795 15.40055064 87734
MO-122
1 60209U 24125G   25273.58710551  .00051840  00000-0  12609-2 0  9990
2 60209  97.2652 124.1752 0018620  90.1970 270.1410 15.40616448 69329
GRBBeta
1 60237U 24128C   25273.69617457  .00012676  00000-0  90113-3 0  9998
2 60237  61.9916  44.8780 0056775  81.5031 279.2490 15.03716772 67208
Curium One
1 60242U 24128H   25273.72114443  .00020868  00000-0  13460-2 0  9996
2 60242  61.9816  41.2277 0056737  78.0443 282.7002 15.07007083 67278
ROBUSTA-3A
1 60243U 24128J   25273.62896433  .00020913  00000-0  13715-2 0  9996
2 60243  61.9888  42.7828 0056242  75.6191 285.1135 15.06420897 67242
CatSat
1 60246U 24125J   25273.57430869  .00055509  00000-0  16207-2 0  9995
2 60246  97.2463 122.0353 0040294  52.6826 307.8078 15.34308884 67285
HYPERVIEW-1G (RS66S)
1 61772U 24199AP  25273.90548532  .00069673  00000-0  16821-2 0  9994
2 61772  97.3333 142.7820 0013504 137.0953 223.1350 15.40848124 94374
AO-123
1 61781U 24199AY  25273.85996243  .00019468  00000-0  66916-3 0  9992
2 61781  97.3358 140.1754 0016092 149.6448 210.5728 15.30012149 94190
ZIMSAT 2
1 61783U 24199BA  25273.88505431  .00160186  00000-0  26668-2 0  9995
2 61783  97.3279 144.5564 0012551 128.5308 231.7072 15.51369735 97647
HADES-R (SO-124)
1 62690U 25009CK  25273.19796237  .00111837  00000-0  28327-2 0  9997
2 62690  97.3989 354.1706 0001540  68.9066 291.2344 15.39293795 39405
HYDRA-T
1 62692U 25009CM  25273.15672825  .00118049  00000-0  29366-2 0  9997
2 62692  97.3991 354.2259 0001295  58.7463 301.3910 15.39820111 39409
JINJUSat 1B
1 63210U 25052A   25273.42915048  .00034105  00000-0  14301-2 0  9992
2 63210  97.4239 166.2082 0001709 314.4194  45.6903 15.23419983 30416
NUSHSAT 1
1 63211U 25052B   25273.65993086  .00037040  00000-0  15256-2 0  9997
2 63211  97.4231 166.4828 0001935 322.4513  37.6588 15.24006699 30455
TEVEL2-4
1 63213U 25052D   25273.63421896  .00036924  00000-0  15413-2 0  9997
2 63213  97.4147 166.1499 0002123   2.9986 357.1263 15.23554596 30440
TEVEL2-5
1 63214U 25052E   25273.63693811  .00034592  00000-0  14464-2 0  9990
2 63214  97.4149 166.1469 0002183   4.3186 355.8069 15.23512906 30442
TEVEL2-6
1 63215U 25052F   25273.64206524  .00038158  00000-0  15963-2 0  9990
2 63215  97.4151 166.1428 0002218   2.8129 357.3120 15.23473497 30446
TEVEL2-1
1 63217U 25052H   25273.67068440  .00033492  00000-0  14134-2 0  9993
2 63217  97.4121 166.0400 0002868  11.2858 348.8443 15.23205273 30446
TEVEL2-3
1 63218U 25052J   25273.67064775  .00033426  00000-0  14102-2 0  9993
2 63218  97.4122 166.0431 0003040  10.8868 349.2434 15.23215586 30444
TEVEL2-2
1 63219U 25052K   25272.94879198  .00027301  00000-0  11558-2 0  9993
2 63219  97.4120 165.3268 0003008  13.7580 346.3738 15.23140748 30330
TEVEL2-9
1 63237U 25052AD  25273.63271937  .00032350  00000-0  14192-2 0  9994
2 63237  97.4188 165.8029 0007294 359.5235   0.5993 15.21872897 30419
TEVEL2-7
1 63238U 25052AE  25273.64065734  .00032371  00000-0  14242-2 0  9991
2 63238  97.4191 165.7969 0007379 358.9299   1.1920 15.21774614 30418
TEVEL2-8
1 63239U 25052AF  25273.64496068  .00032912  00000-0  14490-2 0  9996
2 63239  97.4189 165.7895 0007426 359.3301   0.7924 15.21746500 30418
HYDRA-W
1 63490U 25052BL  25273.65196310  .00089403  00000-0  30026-2 0  9993
2 63490  97.4132 167.0064 0008902 354.3519   5.7620 15.30457014 30501
HADES-ICM (SO-125)
1 63492U 25052BN  25273.64692341  .00078840  00000-0  27286-2 0  9996
2 63492  97.4140 166.8770 0009485 355.9223   4.1938 15.29523295 30495
